Time,TemperatureF,DewpointF,PressureIn,WindDirection,WindDirectionDegrees,WindSpeedMPH,WindSpeedGustMPH,Humidity,HourlyPrecipIn,Conditions,Clouds,dailyrainin,SoftwareType,DateUTC
2013-10-07 00:01:00,76.7,73.9,29.95,SSW,207,8.0,13.0,91,0.00,,---,0.00,VWS V14.01,2013-10-07 04:01:00,
2013-10-07 00:02:00,76.7,73.9,29.95,SSW,202,6.0,13.0,91,0.00,,---,0.00,VWS V14.01,2013-10-07 04:02:00,
2013-10-07 00:04:00,76.7,73.9,29.95,South,189,8.0,13.0,91,0.00,,---,0.00,VWS V14.01,2013-10-07 04:04:00,
2013-10-07 00:09:00,76.7,73.9,29.95,South,185,15.0,15.0,91,0.00,,---,0.00,VWS V14.01,2013-10-07 04:09:00,
2013-10-07 00:15:00,76.8,74.0,29.95,SSW,192,14.0,17.0,91,0.00,,---,0.00,VWS V14.01,2013-10-07 04:15:00,
2013-10-07 00:20:00,76.9,74.1,29.95,SSW,200,11.0,18.0,91,0.00,,---,0.00,VWS V14.01,2013-10-07 04:20:00,
2013-10-07 00:25:00,77.0,74.2,29.95,SSW,211,14.0,19.0,91,0.00,,---,0.00,VWS V14.01,2013-10-07 04:25:00,
2013-10-07 00:30:00,77.0,74.2,29.94,SSW,197,17.0,17.0,91,0.00,,---,0.00,VWS V14.01,2013-10-07 04:30:00,
2013-10-07 00:35:00,77.0,74.2,29.94,SSW,198,13.0,18.0,91,0.00,,---,0.00,VWS V14.01,2013-10-07 04:35:00,
2013-10-07 00:40:00,76.9,73.8,29.94,South,190,15.0,18.0,90,0.00,,---,0.00,VWS V14.01,2013-10-07 04:40:00,
2013-10-07 00:45:00,76.9,73.8,29.94,SSW,206,15.0,18.0,90,0.00,,---,0.00,VWS V14.01,2013-10-07 04:45:00,
2013-10-07 00:50:00,76.9,73.8,29.94,SSW,193,14.0,18.0,90,0.00,,---,0.00,VWS V14.01,2013-10-07 04:50:00,
2013-10-07 00:55:00,76.9,73.8,29.94,SSW,194,9.0,18.0,90,0.00,,---,0.00,VWS V14.01,2013-10-07 04:55:00,
2013-10-07 01:00:00,76.8,73.7,29.94,SSW,207,9.0,13.0,90,0.00,,---,0.00,VWS V14.01,2013-10-07 05:00:00,
2013-10-07 01:05:00,76.8,73.7,29.94,SSW,207,11.0,13.0,90,0.00,,---,0.00,VWS V14.01,2013-10-07 05:05:00,
2013-10-07 01:10:00,76.7,73.9,29.94,SSW,205,6.0,13.0,91,0.00,,---,0.00,VWS V14.01,2013-10-07 05:10:00,
2013-10-07 01:15:00,76.7,73.9,29.94,South,186,10.0,13.0,91,0.00,,---,0.00,VWS V14.01,2013-10-07 05:15:00,
2013-10-07 01:20:00,76.7,74.2,29.94,SSW,202,7.0,13.0,92,0.00,,---,0.00,VWS V14.01,2013-10-07 05:20:00,
2013-10-07 01:25:00,76.8,74.3,29.94,South,190,10.0,16.0,92,0.00,,---,0.00,VWS V14.01,2013-10-07 05:25:00,
2013-10-07 01:30:00,76.9,74.1,29.94,SSW,196,9.0,17.0,91,0.00,,---,0.00,VWS V14.01,2013-10-07 05:30:00,
2013-10-07 01:36:00,76.9,74.1,29.94,SSW,205,14.0,17.0,91,0.00,,---,0.00,VWS V14.01,2013-10-07 05:36:00,
2013-10-07 01:41:00,76.9,74.1,29.94,SSW,202,10.0,17.0,91,0.00,,---,0.00,VWS V14.01,2013-10-07 05:41:00,
2013-10-07 01:46:00,77.0,74.2,29.94,South,190,12.0,19.0,91,0.00,,---,0.00,VWS V14.01,2013-10-07 05:46:00,
2013-10-07 01:51:00,77.1,74.3,29.94,SSW,198,14.0,19.0,91,0.00,,---,0.00,VWS V14.01,2013-10-07 05:51:00,
2013-10-07 01:56:00,77.1,74.3,29.94,SSW,201,14.0,19.0,91,0.00,,---,0.00,VWS V14.01,2013-10-07 05:56:00,
2013-10-07 02:01:00,77.2,74.4,29.94,SSW,198,10.0,17.0,91,0.00,,---,0.00,VWS V14.01,2013-10-07 06:01:00,
2013-10-07 02:06:00,77.2,74.0,29.93,South,184,13.0,18.0,90,0.00,,---,0.00,VWS V14.01,2013-10-07 06:06:00,
2013-10-07 02:11:00,77.2,74.0,29.93,SSW,194,12.0,18.0,90,0.00,,---,0.00,VWS V14.01,2013-10-07 06:11:00,
2013-10-07 02:16:00,77.2,74.0,29.93,South,190,17.0,18.0,90,0.00,,---,0.00,VWS V14.01,2013-10-07 06:16:00,
2013-10-07 02:21:00,77.2,73.7,29.93,SSW,194,19.0,20.0,89,0.00,,---,0.00,VWS V14.01,2013-10-07 06:21:00,
2013-10-07 02:26:00,77.3,73.8,29.92,SSW,209,12.0,20.0,89,0.00,,---,0.00,VWS V14.01,2013-10-07 06:26:00,
2013-10-07 02:31:00,77.3,73.8,29.92,SSW,199,14.0,20.0,89,0.00,,---,0.00,VWS V14.01,2013-10-07 06:31:00,
2013-10-07 02:36:00,77.3,73.8,29.92,South,190,18.0,21.0,89,0.00,,---,0.00,VWS V14.01,2013-10-07 06:36:00,
2013-10-07 02:41:00,77.3,73.8,29.92,SSW,207,13.0,21.0,89,0.00,,---,0.00,VWS V14.01,2013-10-07 06:41:00,
2013-10-07 02:46:00,77.3,73.8,29.92,SSW,205,16.0,21.0,89,0.00,,---,0.00,VWS V14.01,2013-10-07 06:46:00,
2013-10-07 02:52:00,77.2,73.7,29.92,South,188,15.0,21.0,89,0.00,,---,0.00,VWS V14.01,2013-10-07 06:52:00,
2013-10-07 02:57:00,77.2,73.7,29.92,SSW,204,11.0,21.0,89,0.00,,---,0.00,VWS V14.01,2013-10-07 06:57:00,
2013-10-07 03:02:00,77.2,73.7,29.92,SSW,207,10.0,18.0,89,0.00,,---,0.00,VWS V14.01,2013-10-07 07:02:00,
2013-10-07 03:07:00,77.2,73.7,29.92,SW,215,14.0,19.0,89,0.00,,---,0.00,VWS V14.01,2013-10-07 07:07:00,
2013-10-07 03:12:00,77.2,73.7,29.92,SSW,205,16.0,19.0,89,0.00,,---,0.00,VWS V14.01,2013-10-07 07:12:00,
2013-10-07 03:17:00,77.2,73.7,29.91,SSW,212,15.0,19.0,89,0.00,,---,0.00,VWS V14.01,2013-10-07 07:17:00,
2013-10-07 03:22:00,77.2,74.0,29.91,SSW,200,14.0,19.0,90,0.00,,---,0.00,VWS V14.01,2013-10-07 07:22:00,
2013-10-07 03:27:00,77.1,73.6,29.91,SSW,197,14.0,19.0,89,0.00,,---,0.00,VWS V14.01,2013-10-07 07:27:00,
2013-10-07 03:32:00,77.1,73.6,29.91,SW,217,14.0,22.0,89,0.00,,---,0.00,VWS V14.01,2013-10-07 07:32:00,
2013-10-07 03:37:00,77.1,73.3,29.91,SSW,198,17.0,22.0,88,0.00,,---,0.00,VWS V14.01,2013-10-07 07:37:00,
2013-10-07 03:42:00,77.1,73.3,29.91,SSW,196,15.0,22.0,88,0.00,,---,0.00,VWS V14.01,2013-10-07 07:42:00,
2013-10-07 03:47:00,77.1,73.6,29.91,SSW,213,11.0,22.0,89,0.00,,---,0.00,VWS V14.01,2013-10-07 07:47:00,
2013-10-07 03:52:00,77.1,73.6,29.91,SSW,202,21.0,22.0,89,0.00,,---,0.00,VWS V14.01,2013-10-07 07:52:00,
2013-10-07 03:57:00,77.1,73.6,29.91,SSW,209,10.0,16.0,89,0.00,,---,0.00,VWS V14.01,2013-10-07 07:57:00,
2013-10-07 04:02:00,77.2,73.7,29.91,SSW,206,12.0,18.0,89,0.00,,---,0.00,VWS V14.01,2013-10-07 08:02:00,
2013-10-07 04:07:00,77.1,73.6,29.91,SSW,202,16.0,18.0,89,0.00,,---,0.00,VWS V14.01,2013-10-07 08:07:00,
2013-10-07 04:13:00,77.1,73.6,29.91,SSW,203,13.0,19.0,89,0.00,,---,0.00,VWS V14.01,2013-10-07 08:13:00,
2013-10-07 04:18:00,77.1,73.3,29.91,SSW,193,8.0,20.0,88,0.00,,---,0.00,VWS V14.01,2013-10-07 08:18:00,
2013-10-07 04:23:00,77.1,73.3,29.91,SSW,200,16.0,21.0,88,0.00,,---,0.00,VWS V14.01,2013-10-07 08:23:00,
2013-10-07 04:28:00,77.1,73.3,29.91,South,187,17.0,19.0,88,0.00,,---,0.00,VWS V14.01,2013-10-07 08:28:00,
2013-10-07 04:33:00,77.2,73.4,29.90,SSW,198,15.0,19.0,88,0.00,,---,0.00,VWS V14.01,2013-10-07 08:33:00,
2013-10-07 04:38:00,77.1,73.3,29.91,SSW,205,13.0,20.0,88,0.00,,---,0.00,VWS V14.01,2013-10-07 08:38:00,
2013-10-07 04:43:00,77.1,73.3,29.90,South,190,11.0,20.0,88,0.00,,---,0.00,VWS V14.01,2013-10-07 08:43:00,
2013-10-07 04:48:00,77.1,73.6,29.91,SSW,206,13.0,20.0,89,0.00,,---,0.00,VWS V14.01,2013-10-07 08:48:00,
2013-10-07 04:53:00,77.1,73.6,29.91,SSW,206,13.0,20.0,89,0.00,,---,0.00,VWS V14.01,2013-10-07 08:53:00,
2013-10-07 04:58:00,77.1,73.6,29.91,SSW,198,9.0,15.0,89,0.00,,---,0.00,VWS V14.01,2013-10-07 08:58:00,
2013-10-07 05:03:00,77.0,73.5,29.90,South,190,15.0,18.0,89,0.00,,---,0.00,VWS V14.01,2013-10-07 09:03:00,
2013-10-07 05:08:00,77.0,73.5,29.91,SSW,202,16.0,18.0,89,0.00,,---,0.00,VWS V14.01,2013-10-07 09:08:00,
2013-10-07 05:13:00,77.0,73.5,29.91,SSW,201,12.0,18.0,89,0.00,,---,0.00,VWS V14.01,2013-10-07 09:13:00,
2013-10-07 05:19:00,77.1,73.9,29.91,SSW,201,17.0,18.0,90,0.00,,---,0.00,VWS V14.01,2013-10-07 09:19:00,
2013-10-07 05:24:00,77.0,73.8,29.91,SSW,202,17.0,18.0,90,0.00,,---,0.00,VWS V14.01,2013-10-07 09:24:00,
2013-10-07 05:29:00,77.0,73.8,29.91,SSW,209,14.0,18.0,90,0.00,,---,0.00,VWS V14.01,2013-10-07 09:29:00,
2013-10-07 05:34:00,77.1,73.6,29.90,SSW,196,15.0,20.0,89,0.00,,---,0.00,VWS V14.01,2013-10-07 09:34:00,
2013-10-07 05:39:00,77.0,73.5,29.90,SSW,192,14.0,20.0,89,0.00,,---,0.00,VWS V14.01,2013-10-07 09:39:00,
2013-10-07 05:44:00,77.0,73.2,29.91,SSW,209,15.0,21.0,88,0.00,,---,0.00,VWS V14.01,2013-10-07 09:44:00,
2013-10-07 05:49:00,77.1,72.9,29.90,South,188,15.0,21.0,87,0.00,,---,0.00,VWS V14.01,2013-10-07 09:49:00,
2013-10-07 05:54:00,77.2,73.0,29.91,SSW,205,15.0,22.0,87,0.00,,---,0.00,VWS V14.01,2013-10-07 09:54:00,
2013-10-07 05:59:00,77.2,73.0,29.91,SSW,211,13.0,22.0,87,0.00,,---,0.00,VWS V14.01,2013-10-07 09:59:00,
2013-10-07 06:04:00,77.2,73.0,29.90,SSW,207,16.0,23.0,87,0.00,,---,0.00,VWS V14.01,2013-10-07 10:04:00,
2013-10-07 06:09:00,77.2,73.0,29.90,SSW,207,17.0,23.0,87,0.00,,---,0.00,VWS V14.01,2013-10-07 10:09:00,
2013-10-07 06:14:00,77.2,73.0,29.90,SSW,209,14.0,23.0,87,0.00,,---,0.00,VWS V14.01,2013-10-07 10:14:00,
2013-10-07 06:19:00,77.2,73.0,29.90,SSW,198,16.0,23.0,87,0.00,,---,0.00,VWS V14.01,2013-10-07 10:19:00,
2013-10-07 06:24:00,77.2,73.0,29.90,SSW,209,15.0,23.0,87,0.00,,---,0.00,VWS V14.01,2013-10-07 10:24:00,
2013-10-07 06:29:00,77.3,73.1,29.90,SSW,196,13.0,20.0,87,0.00,,---,0.00,VWS V14.01,2013-10-07 10:29:00,
2013-10-07 06:34:00,77.3,73.1,29.91,SSW,193,13.0,20.0,87,0.00,,---,0.00,VWS V14.01,2013-10-07 10:34:00,
2013-10-07 06:40:00,77.3,73.5,29.90,SSW,202,11.0,20.0,88,0.00,,---,0.00,VWS V14.01,2013-10-07 10:40:00,
2013-10-07 06:45:00,77.3,73.5,29.90,SSW,197,15.0,20.0,88,0.00,,---,0.00,VWS V14.01,2013-10-07 10:45:00,
2013-10-07 06:50:00,77.3,73.5,29.90,SSW,197,15.0,20.0,88,0.00,,---,0.00,VWS V14.01,2013-10-07 10:50:00,
2013-10-07 06:55:00,77.3,73.5,29.90,SSW,192,14.0,20.0,88,0.00,,---,0.00,VWS V14.01,2013-10-07 10:55:00,
2013-10-07 07:00:00,77.2,73.4,29.90,SSW,205,13.0,17.0,88,0.00,,---,0.00,VWS V14.01,2013-10-07 11:00:00,
2013-10-07 07:05:00,77.2,73.4,29.90,SSW,198,14.0,20.0,88,0.00,,---,0.00,VWS V14.01,2013-10-07 11:05:00,
2013-10-07 07:10:00,77.2,73.4,29.90,SSW,200,13.0,20.0,88,0.00,,---,0.00,VWS V14.01,2013-10-07 11:10:00,
2013-10-07 07:15:00,77.2,73.4,29.90,SSW,199,14.0,20.0,88,0.00,,---,0.00,VWS V14.01,2013-10-07 11:15:00,
2013-10-07 07:20:00,77.2,73.7,29.90,SSW,200,15.0,20.0,89,0.00,,---,0.00,VWS V14.01,2013-10-07 11:20:00,
2013-10-07 07:25:00,77.1,73.6,29.91,SSW,207,12.0,20.0,89,0.00,,---,0.00,VWS V14.01,2013-10-07 11:25:00,
2013-10-07 07:30:00,77.0,73.5,29.90,SSW,196,13.0,17.0,89,0.00,,---,0.00,VWS V14.01,2013-10-07 11:30:00,
2013-10-07 07:35:00,77.0,73.5,29.91,SSW,197,11.0,17.0,89,0.00,,---,0.00,VWS V14.01,2013-10-07 11:35:00,
2013-10-07 07:40:00,77.2,73.4,29.91,SSW,197,13.0,17.0,88,0.00,,---,0.00,VWS V14.01,2013-10-07 11:40:00,
2013-10-07 07:45:00,77.4,73.6,29.91,SSW,212,13.0,18.0,88,0.00,,---,0.00,VWS V14.01,2013-10-07 11:45:00,
2013-10-07 07:50:00,77.6,73.8,29.91,SSW,202,18.0,19.0,88,0.00,,---,0.00,VWS V14.01,2013-10-07 11:50:00,
2013-10-07 07:55:00,77.9,74.1,29.91,SSW,209,11.0,19.0,88,0.00,,---,0.00,VWS V14.01,2013-10-07 11:55:00,
2013-10-07 08:01:00,78.1,73.9,29.90,South,188,12.0,17.0,87,0.00,,---,0.00,VWS V14.01,2013-10-07 12:01:00,
2013-10-07 08:06:00,78.4,73.9,29.91,SSW,192,11.0,17.0,86,0.00,,---,0.00,VWS V14.01,2013-10-07 12:06:00,
2013-10-07 08:11:00,78.6,74.1,29.91,SSW,208,15.0,20.0,86,0.00,,---,0.00,VWS V14.01,2013-10-07 12:11:00,
2013-10-07 08:16:00,78.9,74.0,29.91,SSW,211,16.0,20.0,85,0.00,,---,0.00,VWS V14.01,2013-10-07 12:16:00,
2013-10-07 08:21:00,79.1,74.2,29.91,SW,214,9.0,20.0,85,0.00,,---,0.00,VWS V14.01,2013-10-07 12:21:00,
2013-10-07 08:26:00,79.2,74.3,29.91,SSW,193,19.0,20.0,85,0.00,,---,0.00,VWS V14.01,2013-10-07 12:26:00,
2013-10-07 08:31:00,79.3,74.1,29.90,South,186,14.0,22.0,84,0.00,,---,0.00,VWS V14.01,2013-10-07 12:31:00,
2013-10-07 08:36:00,79.4,74.2,29.91,South,188,11.0,22.0,84,0.00,,---,0.00,VWS V14.01,2013-10-07 12:36:00,
2013-10-07 08:41:00,79.7,74.4,29.91,SSW,197,11.0,22.0,84,0.00,,---,0.00,VWS V14.01,2013-10-07 12:41:00,
2013-10-07 08:46:00,80.0,74.4,29.91,SSW,205,16.0,22.0,83,0.00,,---,0.00,VWS V14.01,2013-10-07 12:46:00,
2013-10-07 08:51:00,79.7,74.1,29.91,South,169,14.0,22.0,83,0.00,,---,0.00,VWS V14.01,2013-10-07 12:51:00,
2013-10-07 08:56:00,79.4,73.8,29.91,SSW,197,12.0,22.0,83,0.00,,---,0.00,VWS V14.01,2013-10-07 12:56:00,
2013-10-07 09:01:00,79.6,74.0,29.91,SSW,192,16.0,20.0,83,0.00,,---,0.00,VWS V14.01,2013-10-07 13:01:00,
2013-10-07 09:06:00,79.9,74.3,29.91,South,186,14.0,21.0,83,0.00,,---,0.00,VWS V14.01,2013-10-07 13:06:00,
2013-10-07 09:12:00,79.9,74.3,29.91,South,186,14.0,21.0,83,0.00,,---,0.00,VWS V14.01,2013-10-07 13:12:00,
2013-10-07 09:17:00,79.7,74.1,29.91,South,186,20.0,21.0,83,0.00,,---,0.00,VWS V14.01,2013-10-07 13:17:00,
2013-10-07 09:22:00,79.5,73.9,29.91,SSW,204,17.0,24.0,83,0.00,,---,0.00,VWS V14.01,2013-10-07 13:22:00,
2013-10-07 09:27:00,79.7,73.7,29.91,South,180,13.0,24.0,82,0.00,,---,0.00,VWS V14.01,2013-10-07 13:27:00,
2013-10-07 09:32:00,80.2,74.2,29.91,SSW,196,13.0,17.0,82,0.00,,---,0.00,VWS V14.01,2013-10-07 13:32:00,
2013-10-07 09:37:00,80.5,74.1,29.91,South,187,11.0,18.0,81,0.00,,---,0.00,VWS V14.01,2013-10-07 13:37:00,
2013-10-07 09:42:00,80.8,74.4,29.91,SSW,195,11.0,19.0,81,0.00,,---,0.00,VWS V14.01,2013-10-07 13:42:00,
2013-10-07 09:47:00,81.0,74.6,29.92,SSW,195,15.0,19.0,81,0.00,,---,0.00,VWS V14.01,2013-10-07 13:47:00,
2013-10-07 09:52:00,80.9,74.9,29.92,SSW,209,13.0,19.0,82,0.00,,---,0.00,VWS V14.01,2013-10-07 13:52:00,
2013-10-07 09:57:00,80.8,74.8,29.92,South,188,13.0,17.0,82,0.00,,---,0.00,VWS V14.01,2013-10-07 13:57:00,
2013-10-07 10:02:00,80.5,74.5,29.92,SSW,201,14.0,19.0,82,0.00,,---,0.00,VWS V14.01,2013-10-07 14:02:00,
2013-10-07 10:07:00,80.2,74.2,29.92,SSW,199,19.0,22.0,82,0.00,,---,0.00,VWS V14.01,2013-10-07 14:07:00,
2013-10-07 10:12:00,80.0,74.0,29.92,SSW,203,12.0,22.0,82,0.00,,---,0.00,VWS V14.01,2013-10-07 14:12:00,
2013-10-07 10:18:00,80.0,73.7,29.92,SSW,208,14.0,22.0,81,0.00,,---,0.00,VWS V14.01,2013-10-07 14:18:00,
2013-10-07 10:23:00,80.1,73.8,29.92,SW,229,13.0,22.0,81,0.00,,---,0.00,VWS V14.01,2013-10-07 14:23:00,
2013-10-07 10:28:00,80.2,73.8,29.92,SSW,202,15.0,17.0,81,0.00,,---,0.00,VWS V14.01,2013-10-07 14:28:00,
2013-10-07 10:33:00,80.3,73.6,29.92,SSW,213,11.0,19.0,80,0.00,,---,0.00,VWS V14.01,2013-10-07 14:33:00,
2013-10-07 10:38:00,80.6,73.9,29.91,South,180,13.0,21.0,80,0.00,,---,0.00,VWS V14.01,2013-10-07 14:38:00,
2013-10-07 10:43:00,80.6,73.9,29.92,South,189,16.0,21.0,80,0.00,,---,0.00,VWS V14.01,2013-10-07 14:43:00,
2013-10-07 10:48:00,80.7,74.3,29.92,SSW,212,19.0,21.0,81,0.00,,---,0.00,VWS V14.01,2013-10-07 14:48:00,
2013-10-07 10:53:00,80.9,74.2,29.92,SSW,197,16.0,21.0,80,0.00,,---,0.00,VWS V14.01,2013-10-07 14:53:00,
2013-10-07 10:58:00,81.0,74.6,29.91,SSW,211,16.0,19.0,81,0.00,,---,0.00,VWS V14.01,2013-10-07 14:58:00,
2013-10-07 11:03:00,81.0,74.6,29.91,SW,215,11.0,19.0,81,0.00,,---,0.00,VWS V14.01,2013-10-07 15:03:00,
2013-10-07 11:08:00,80.8,74.8,29.91,SSW,192,12.0,19.0,82,0.00,,---,0.00,VWS V14.01,2013-10-07 15:08:00,
2013-10-07 11:13:00,81.2,75.2,29.91,SSW,202,12.0,19.0,82,0.00,,---,0.00,VWS V14.01,2013-10-07 15:13:00,
2013-10-07 11:18:00,81.5,75.1,29.91,SSW,194,11.0,19.0,81,0.00,,---,0.00,VWS V14.01,2013-10-07 15:18:00,
2013-10-07 11:23:00,81.5,75.1,29.91,SSW,200,14.0,19.0,81,0.00,,---,0.00,VWS V14.01,2013-10-07 15:23:00,
2013-10-07 11:28:00,81.3,74.9,29.91,SW,217,11.0,16.0,81,0.00,,---,0.00,VWS V14.01,2013-10-07 15:28:00,
2013-10-07 11:33:00,81.2,74.8,29.90,SSW,210,16.0,18.0,81,0.00,,---,0.00,VWS V14.01,2013-10-07 15:33:00,
2013-10-07 11:39:00,81.2,74.8,29.91,SSW,205,15.0,19.0,81,0.00,,---,0.00,VWS V14.01,2013-10-07 15:39:00,
2013-10-07 11:44:00,81.0,74.6,29.91,SSW,211,18.0,19.0,81,0.00,,---,0.00,VWS V14.01,2013-10-07 15:44:00,
2013-10-07 11:49:00,80.9,74.2,29.91,SSW,205,16.0,19.0,80,0.00,,---,0.00,VWS V14.01,2013-10-07 15:49:00,
2013-10-07 11:54:00,80.7,74.0,29.91,SSW,203,18.0,19.0,80,0.00,,---,0.00,VWS V14.01,2013-10-07 15:54:00,
2013-10-07 11:59:00,80.5,73.8,29.91,SSW,212,15.0,17.0,80,0.00,,---,0.00,VWS V14.01,2013-10-07 15:59:00,
2013-10-07 12:04:00,80.3,73.9,29.91,SSW,194,16.0,21.0,81,0.00,,---,0.00,VWS V14.01,2013-10-07 16:04:00,
2013-10-07 12:09:00,80.2,73.8,29.91,SSW,197,14.0,21.0,81,0.00,,---,0.00,VWS V14.01,2013-10-07 16:09:00,
2013-10-07 12:14:00,80.2,73.8,29.91,SSW,201,13.0,21.0,81,0.00,,---,0.00,VWS V14.01,2013-10-07 16:14:00,
2013-10-07 12:19:00,80.1,74.1,29.91,SSW,196,12.0,21.0,82,0.00,,---,0.00,VWS V14.01,2013-10-07 16:19:00,
2013-10-07 12:24:00,80.1,74.1,29.90,SSW,196,12.0,21.0,82,0.00,,---,0.00,VWS V14.01,2013-10-07 16:24:00,
2013-10-07 12:29:00,80.1,73.8,29.90,SSW,203,13.0,18.0,81,0.00,,---,0.00,VWS V14.01,2013-10-07 16:29:00,
2013-10-07 12:34:00,80.2,73.8,29.90,SSW,200,17.0,19.0,81,0.00,,---,0.00,VWS V14.01,2013-10-07 16:34:00,
2013-10-07 12:39:00,80.2,73.8,29.90,SSW,198,17.0,20.0,81,0.00,,---,0.00,VWS V14.01,2013-10-07 16:39:00,
2013-10-07 12:44:00,80.3,73.9,29.90,SSW,205,15.0,20.0,81,0.00,,---,0.00,VWS V14.01,2013-10-07 16:44:00,
2013-10-07 12:49:00,80.4,74.0,29.89,South,173,14.0,20.0,81,0.00,,---,0.00,VWS V14.01,2013-10-07 16:49:00,
2013-10-07 12:55:00,80.4,74.0,29.89,SSW,192,15.0,20.0,81,0.00,,---,0.00,VWS V14.01,2013-10-07 16:55:00,
2013-10-07 13:00:00,80.5,74.1,29.89,SSW,193,12.0,18.0,81,0.00,,---,0.00,VWS V14.01,2013-10-07 17:00:00,
2013-10-07 13:05:00,80.6,73.9,29.89,South,189,11.0,18.0,80,0.00,,---,0.00,VWS V14.01,2013-10-07 17:05:00,
2013-10-07 13:10:00,80.4,73.7,29.89,SSW,209,12.0,18.0,80,0.00,,---,0.00,VWS V14.01,2013-10-07 17:10:00,
2013-10-07 13:15:00,80.2,73.8,29.89,SSW,210,12.0,18.0,81,0.00,,---,0.00,VWS V14.01,2013-10-07 17:15:00,
2013-10-07 13:20:00,80.1,73.8,29.88,SSW,195,16.0,18.0,81,0.00,,---,0.00,VWS V14.01,2013-10-07 17:20:00,
2013-10-07 13:25:00,80.1,73.8,29.88,SSW,196,13.0,18.0,81,0.00,,---,0.00,VWS V14.01,2013-10-07 17:25:00,
2013-10-07 13:30:00,80.2,74.2,29.89,SSW,194,9.0,16.0,82,0.00,,---,0.00,VWS V14.01,2013-10-07 17:30:00,
2013-10-07 13:35:00,80.1,74.1,29.88,SSW,209,11.0,16.0,82,0.00,,---,0.00,VWS V14.01,2013-10-07 17:35:00,
2013-10-07 13:40:00,80.1,74.5,29.88,SSW,200,9.0,16.0,83,0.00,,---,0.00,VWS V14.01,2013-10-07 17:40:00,
2013-10-07 13:45:00,80.0,74.4,29.88,SSW,205,11.0,16.0,83,0.00,,---,0.00,VWS V14.01,2013-10-07 17:45:00,
2013-10-07 13:50:00,79.9,74.3,29.87,SSW,198,11.0,16.0,83,0.00,,---,0.00,VWS V14.01,2013-10-07 17:50:00,
2013-10-07 13:55:00,79.9,74.3,29.87,SSW,207,10.0,16.0,83,0.00,,---,0.00,VWS V14.01,2013-10-07 17:55:00,
2013-10-07 14:01:00,80.0,74.7,29.87,SSW,201,9.0,12.0,84,0.00,,---,0.00,VWS V14.01,2013-10-07 18:01:00,
2013-10-07 14:06:00,80.0,74.7,29.86,SSW,203,9.0,12.0,84,0.00,,---,0.00,VWS V14.01,2013-10-07 18:06:00,
2013-10-07 14:11:00,80.0,74.7,29.86,SSW,197,6.0,12.0,84,0.00,,---,0.00,VWS V14.01,2013-10-07 18:11:00,
2013-10-07 14:16:00,80.1,75.2,29.86,SSW,202,6.0,12.0,85,0.00,,---,0.00,VWS V14.01,2013-10-07 18:16:00,
2013-10-07 14:21:00,80.1,75.2,29.86,South,188,6.0,12.0,85,0.00,,---,0.00,VWS V14.01,2013-10-07 18:21:00,
2013-10-07 14:26:00,80.0,75.1,29.86,SSW,199,7.0,12.0,85,0.00,,---,0.00,VWS V14.01,2013-10-07 18:26:00,
2013-10-07 14:31:00,79.8,74.9,29.86,SSW,193,8.0,11.0,85,0.00,,---,0.00,VWS V14.01,2013-10-07 18:31:00,
2013-10-07 14:36:00,79.7,74.8,29.86,SSW,198,10.0,12.0,85,0.00,,---,0.00,VWS V14.01,2013-10-07 18:36:00,
2013-10-07 14:41:00,79.6,74.7,29.86,SSW,203,6.0,12.0,85,0.00,,---,0.00,VWS V14.01,2013-10-07 18:41:00,
2013-10-07 14:46:00,79.5,74.6,29.86,SSW,200,10.0,12.0,85,0.00,,---,0.00,VWS V14.01,2013-10-07 18:46:00,
2013-10-07 14:51:00,79.4,74.8,29.86,SSW,207,9.0,13.0,86,0.00,,---,0.00,VWS V14.01,2013-10-07 18:51:00,
2013-10-07 14:56:00,79.2,74.7,29.86,South,180,9.0,13.0,86,0.00,,---,0.00,VWS V14.01,2013-10-07 18:56:00,
2013-10-07 15:01:00,79.1,74.9,29.86,SSW,192,9.0,13.0,87,0.00,,---,0.00,VWS V14.01,2013-10-07 19:01:00,
2013-10-07 15:06:00,78.9,74.4,29.86,South,184,7.0,13.0,86,0.00,,---,0.00,VWS V14.01,2013-10-07 19:06:00,
2013-10-07 15:12:00,78.8,74.6,29.86,SSW,192,9.0,13.0,87,0.00,,---,0.00,VWS V14.01,2013-10-07 19:12:00,
2013-10-07 15:17:00,78.7,74.2,29.86,SSW,202,10.0,13.0,86,0.00,,---,0.00,VWS V14.01,2013-10-07 19:17:00,
2013-10-07 15:22:00,78.7,74.2,29.86,SSW,192,7.0,13.0,86,0.00,,---,0.00,VWS V14.01,2013-10-07 19:22:00,
2013-10-07 15:27:00,78.7,74.5,29.86,SSW,195,10.0,13.0,87,0.00,,---,0.00,VWS V14.01,2013-10-07 19:27:00,
2013-10-07 15:32:00,78.8,74.6,29.86,SSW,206,9.0,11.0,87,0.00,,---,0.00,VWS V14.01,2013-10-07 19:32:00,
2013-10-07 15:37:00,78.8,74.3,29.86,SSW,192,9.0,14.0,86,0.00,,---,0.00,VWS V14.01,2013-10-07 19:37:00,
2013-10-07 15:42:00,78.8,74.6,29.86,SSW,205,9.0,14.0,87,0.00,,---,0.00,VWS V14.01,2013-10-07 19:42:00,
2013-10-07 15:47:00,78.8,74.6,29.87,SSW,200,13.0,14.0,87,0.00,,---,0.00,VWS V14.01,2013-10-07 19:47:00,
2013-10-07 15:52:00,78.8,74.6,29.86,SSW,196,9.0,14.0,87,0.00,,---,0.00,VWS V14.01,2013-10-07 19:52:00,
2013-10-07 15:57:00,78.8,74.6,29.86,South,190,11.0,11.0,87,0.00,,---,0.00,VWS V14.01,2013-10-07 19:57:00,
2013-10-07 16:02:00,78.7,74.8,29.86,South,191,10.0,13.0,88,0.00,,---,0.00,VWS V14.01,2013-10-07 20:02:00,
2013-10-07 16:07:00,78.6,74.4,29.86,SSW,202,6.0,13.0,87,0.00,,---,0.00,VWS V14.01,2013-10-07 20:07:00,
2013-10-07 16:12:00,78.6,74.4,29.86,South,185,6.0,13.0,87,0.00,,---,0.00,VWS V14.01,2013-10-07 20:12:00,
2013-10-07 16:17:00,78.5,74.3,29.86,SSW,192,4.0,13.0,87,0.00,,---,0.00,VWS V14.01,2013-10-07 20:17:00,
2013-10-07 16:22:00,78.5,74.3,29.87,SSW,195,9.0,13.0,87,0.00,,---,0.00,VWS V14.01,2013-10-07 20:22:00,
2013-10-07 16:27:00,78.5,74.3,29.87,South,181,7.0,11.0,87,0.00,,---,0.00,VWS V14.01,2013-10-07 20:27:00,
2013-10-07 16:33:00,78.3,74.1,29.87,SSW,202,13.0,24.0,87,0.00,,---,0.00,VWS V14.01,2013-10-07 20:33:00,
2013-10-07 16:38:00,77.3,69.2,29.87,SSW,210,30.0,33.0,76,0.01,,---,0.01,VWS V14.01,2013-10-07 20:38:00,
2013-10-07 16:43:00,76.2,70.7,29.87,SSW,213,9.0,33.0,83,0.07,,---,0.07,VWS V14.01,2013-10-07 20:43:00,
2013-10-07 16:48:00,75.4,69.9,29.86,SSW,205,10.0,33.0,83,0.08,,---,0.08,VWS V14.01,2013-10-07 20:48:00,
2013-10-07 16:53:00,74.9,70.4,29.86,South,191,11.0,33.0,86,0.08,,---,0.08,VWS V14.01,2013-10-07 20:53:00,
2013-10-07 16:58:00,75.1,72.0,29.86,SSW,205,11.0,13.0,90,0.09,,---,0.09,VWS V14.01,2013-10-07 20:58:00,
2013-10-07 17:03:00,75.4,72.3,29.86,SW,215,13.0,15.0,90,0.10,,---,0.10,VWS V14.01,2013-10-07 21:03:00,
2013-10-07 17:08:00,75.6,72.1,29.86,SSW,201,15.0,20.0,89,0.10,,---,0.10,VWS V14.01,2013-10-07 21:08:00,
2013-10-07 17:13:00,75.6,71.8,29.86,SSW,201,14.0,20.0,88,0.11,,---,0.11,VWS V14.01,2013-10-07 21:13:00,
2013-10-07 17:18:00,75.6,72.1,29.86,SW,215,9.0,20.0,89,0.11,,---,0.11,VWS V14.01,2013-10-07 21:18:00,
2013-10-07 17:23:00,75.6,71.8,29.86,SSW,194,14.0,20.0,88,0.12,,---,0.12,VWS V14.01,2013-10-07 21:23:00,
2013-10-07 17:28:00,75.5,72.0,29.87,SSW,202,12.0,13.0,89,0.12,,---,0.12,VWS V14.01,2013-10-07 21:28:00,
2013-10-07 17:33:00,75.4,71.6,29.86,SSW,196,5.0,14.0,88,0.13,,---,0.13,VWS V14.01,2013-10-07 21:33:00,
2013-10-07 17:38:00,75.3,72.2,29.86,SSW,196,4.0,14.0,90,0.13,,---,0.13,VWS V14.01,2013-10-07 21:38:00,
2013-10-07 17:43:00,75.3,72.5,29.86,SSW,196,2.0,14.0,91,0.13,,---,0.13,VWS V14.01,2013-10-07 21:43:00,
2013-10-07 17:49:00,75.4,72.6,29.86,SSW,211,4.0,14.0,91,0.13,,---,0.13,VWS V14.01,2013-10-07 21:49:00,
2013-10-07 17:54:00,75.5,72.7,29.86,SW,220,1.0,14.0,91,0.13,,---,0.13,VWS V14.01,2013-10-07 21:54:00,
2013-10-07 17:59:00,75.5,73.0,29.86,SW,220,0.0,2.0,92,0.04,,---,0.13,VWS V14.01,2013-10-07 21:59:00,
2013-10-07 18:04:00,75.5,72.7,29.85,SW,220,0.0,2.0,91,0.04,,---,0.13,VWS V14.01,2013-10-07 22:04:00,
2013-10-07 18:09:00,75.5,73.0,29.85,SW,220,0.0,2.0,92,0.05,,---,0.14,VWS V14.01,2013-10-07 22:09:00,
2013-10-07 18:14:00,75.5,73.0,29.85,SW,220,0.0,2.0,92,0.05,,---,0.14,VWS V14.01,2013-10-07 22:14:00,
2013-10-07 18:19:00,75.4,72.6,29.85,SSW,202,5.0,5.0,91,0.05,,---,0.14,VWS V14.01,2013-10-07 22:19:00,
2013-10-07 18:24:00,75.3,72.2,29.86,SSW,205,4.0,6.0,90,0.05,,---,0.14,VWS V14.01,2013-10-07 22:24:00,
2013-10-07 18:29:00,75.4,72.3,29.86,SSW,200,3.0,6.0,90,0.02,,---,0.14,VWS V14.01,2013-10-07 22:29:00,
2013-10-07 18:34:00,75.6,72.5,29.87,SSW,213,4.0,7.0,90,0.02,,---,0.14,VWS V14.01,2013-10-07 22:34:00,
2013-10-07 18:39:00,75.7,72.6,29.86,SSW,205,3.0,7.0,90,0.03,,---,0.15,VWS V14.01,2013-10-07 22:39:00,
2013-10-07 18:44:00,75.7,72.9,29.87,SSW,205,3.0,7.0,91,0.04,,---,0.16,VWS V14.01,2013-10-07 22:44:00,
2013-10-07 18:49:00,75.8,73.3,29.87,SW,229,4.0,7.0,92,0.04,,---,0.16,VWS V14.01,2013-10-07 22:49:00,
2013-10-07 18:54:00,75.8,73.6,29.87,SW,235,4.0,7.0,93,0.04,,---,0.16,VWS V14.01,2013-10-07 22:54:00,
2013-10-07 18:59:00,75.8,73.6,29.86,SSW,207,11.0,11.0,93,0.03,,---,0.16,VWS V14.01,2013-10-07 22:59:00,
2013-10-07 19:05:00,75.8,73.6,29.87,SSW,205,8.0,11.0,93,0.03,,---,0.16,VWS V14.01,2013-10-07 23:05:00,
2013-10-07 19:10:00,75.8,73.6,29.86,SW,226,5.0,11.0,93,0.03,,---,0.16,VWS V14.01,2013-10-07 23:10:00,
2013-10-07 19:15:00,75.9,74.1,29.86,SW,229,3.0,11.0,94,0.04,,---,0.17,VWS V14.01,2013-10-07 23:15:00,
2013-10-07 19:20:00,75.8,73.9,29.86,WSW,252,6.0,11.0,94,0.04,,---,0.17,VWS V14.01,2013-10-07 23:20:00,
2013-10-07 19:25:00,75.7,73.8,29.86,SW,233,2.0,11.0,94,0.05,,---,0.18,VWS V14.01,2013-10-07 23:25:00,
2013-10-07 19:30:00,75.6,73.8,29.85,South,188,1.0,5.0,94,0.04,,---,0.18,VWS V14.01,2013-10-07 23:30:00,
2013-10-07 19:35:00,75.5,73.7,29.85,SSW,200,4.0,5.0,94,0.04,,---,0.18,VWS V14.01,2013-10-07 23:35:00,
2013-10-07 19:40:00,75.5,74.0,29.85,SSW,202,6.0,7.0,95,0.05,,---,0.19,VWS V14.01,2013-10-07 23:40:00,
2013-10-07 19:45:00,75.4,73.9,29.85,SSW,196,8.0,11.0,95,0.05,,---,0.19,VWS V14.01,2013-10-07 23:45:00,
2013-10-07 19:50:00,75.4,73.9,29.85,SSW,193,4.0,11.0,95,0.05,,---,0.19,VWS V14.01,2013-10-07 23:50:00,
2013-10-07 19:55:00,75.4,73.9,29.85,SSW,192,4.0,11.0,95,0.05,,---,0.19,VWS V14.01,2013-10-07 23:55:00,
2013-10-07 20:00:00,75.5,74.0,29.85,South,184,11.0,12.0,95,0.04,,---,0.20,VWS V14.01,2013-10-08 00:00:00,
2013-10-07 20:05:00,75.4,73.9,29.86,South,172,7.0,12.0,95,0.04,,---,0.20,VWS V14.01,2013-10-08 00:05:00,
2013-10-07 20:11:00,75.3,73.8,29.86,South,171,7.0,12.0,95,0.04,,---,0.20,VWS V14.01,2013-10-08 00:11:00,
2013-10-07 20:16:00,75.3,73.8,29.86,South,173,3.0,12.0,95,0.05,,---,0.21,VWS V14.01,2013-10-08 00:16:00,
2013-10-07 20:21:00,75.2,73.7,29.86,SSE,155,0.0,12.0,95,0.05,,---,0.21,VWS V14.01,2013-10-08 00:21:00,
2013-10-07 20:26:00,75.1,73.3,29.86,SSE,155,2.0,12.0,94,0.05,,---,0.21,VWS V14.01,2013-10-08 00:26:00,
2013-10-07 20:31:00,75.0,72.8,29.87,SE,146,4.0,5.0,93,0.04,,---,0.22,VWS V14.01,2013-10-08 00:31:00,
2013-10-07 20:36:00,74.8,72.6,29.86,SE,142,3.0,6.0,93,0.04,,---,0.22,VWS V14.01,2013-10-08 00:36:00,
2013-10-07 20:41:00,74.7,72.2,29.86,SE,141,3.0,6.0,92,0.05,,---,0.23,VWS V14.01,2013-10-08 00:41:00,
2013-10-07 20:46:00,74.5,72.0,29.86,SE,132,1.0,6.0,92,0.07,,---,0.25,VWS V14.01,2013-10-08 00:46:00,
2013-10-07 20:51:00,74.7,72.9,29.86,ESE,111,3.0,7.0,94,0.08,,---,0.26,VWS V14.01,2013-10-08 00:51:00,
2013-10-07 20:56:00,75.1,73.3,29.86,ESE,104,6.0,7.0,94,0.09,,---,0.27,VWS V14.01,2013-10-08 00:56:00,
2013-10-07 21:01:00,75.2,73.4,29.87,East,90,4.0,7.0,94,0.08,,---,0.27,VWS V14.01,2013-10-08 01:01:00,
2013-10-07 21:06:00,75.5,74.0,29.88,ENE,64,4.0,7.0,95,0.09,,---,0.28,VWS V14.01,2013-10-08 01:06:00,
2013-10-07 21:11:00,75.6,74.1,29.88,East,86,2.0,7.0,95,0.09,,---,0.28,VWS V14.01,2013-10-08 01:11:00,
2013-10-07 21:16:00,75.7,74.2,29.88,East,88,3.0,7.0,95,0.09,,---,0.28,VWS V14.01,2013-10-08 01:16:00,
2013-10-07 21:21:00,75.5,73.7,29.88,East,93,2.0,7.0,94,0.09,,---,0.28,VWS V14.01,2013-10-08 01:21:00,
2013-10-07 21:26:00,75.5,74.0,29.88,NE,51,4.0,7.0,95,0.09,,---,0.28,VWS V14.01,2013-10-08 01:26:00,
2013-10-07 21:32:00,75.3,73.8,29.88,East,89,4.0,5.0,95,0.06,,---,0.28,VWS V14.01,2013-10-08 01:32:00,
2013-10-07 21:37:00,75.1,73.6,29.88,East,84,6.0,6.0,95,0.06,,---,0.28,VWS V14.01,2013-10-08 01:37:00,
2013-10-07 21:42:00,74.9,73.7,29.88,ENE,78,4.0,7.0,96,0.06,,---,0.28,VWS V14.01,2013-10-08 01:42:00,
2013-10-07 21:47:00,74.9,73.7,29.88,ENE,63,4.0,7.0,96,0.06,,---,0.28,VWS V14.01,2013-10-08 01:47:00,
2013-10-07 21:52:00,75.0,73.8,29.88,NE,36,8.0,10.0,96,0.06,,---,0.28,VWS V14.01,2013-10-08 01:52:00,
2013-10-07 21:57:00,75.0,73.8,29.88,NNE,15,6.0,10.0,96,0.06,,---,0.28,VWS V14.01,2013-10-08 01:57:00,
2013-10-07 22:02:00,74.5,73.0,29.88,NNE,25,5.0,7.0,95,0.01,,---,0.28,VWS V14.01,2013-10-08 02:02:00,
2013-10-07 22:07:00,74.3,73.1,29.89,NNE,27,7.0,11.0,96,0.01,,---,0.28,VWS V14.01,2013-10-08 02:07:00,
2013-10-07 22:12:00,74.4,72.9,29.89,NE,53,6.0,11.0,95,0.01,,---,0.28,VWS V14.01,2013-10-08 02:12:00,
2013-10-07 22:17:00,74.6,73.1,29.90,NE,46,6.0,11.0,95,0.01,,---,0.28,VWS V14.01,2013-10-08 02:17:00,
2013-10-07 22:22:00,74.5,73.0,29.90,ENE,66,5.0,11.0,95,0.01,,---,0.28,VWS V14.01,2013-10-08 02:22:00,
2013-10-07 22:27:00,74.5,73.0,29.90,NE,46,6.0,6.0,95,0.00,,---,0.28,VWS V14.01,2013-10-08 02:27:00,
2013-10-07 22:32:00,74.5,73.0,29.90,ENE,61,6.0,9.0,95,0.00,,---,0.28,VWS V14.01,2013-10-08 02:32:00,
2013-10-07 22:37:00,74.5,73.0,29.90,NE,46,6.0,9.0,95,0.00,,---,0.28,VWS V14.01,2013-10-08 02:37:00,
2013-10-07 22:42:00,74.5,73.0,29.90,NE,51,5.0,9.0,95,0.00,,---,0.28,VWS V14.01,2013-10-08 02:42:00,
2013-10-07 22:48:00,74.4,72.9,29.90,ENE,58,5.0,9.0,95,0.00,,---,0.28,VWS V14.01,2013-10-08 02:48:00,
2013-10-07 22:53:00,74.5,73.0,29.90,East,87,2.0,9.0,95,0.00,,---,0.28,VWS V14.01,2013-10-08 02:53:00,
2013-10-07 22:58:00,74.4,72.9,29.90,East,100,3.0,4.0,95,0.00,,---,0.28,VWS V14.01,2013-10-08 02:58:00,
2013-10-07 23:03:00,74.4,72.9,29.90,ESE,107,5.0,6.0,95,0.00,,---,0.28,VWS V14.01,2013-10-08 03:03:00,
2013-10-07 23:08:00,74.4,72.9,29.89,ENE,64,4.0,7.0,95,0.00,,---,0.28,VWS V14.01,2013-10-08 03:08:00,
2013-10-07 23:13:00,74.5,73.0,29.90,ENE,74,4.0,7.0,95,0.00,,---,0.28,VWS V14.01,2013-10-08 03:13:00,
2013-10-07 23:18:00,74.4,72.9,29.89,East,86,4.0,7.0,95,0.00,,---,0.28,VWS V14.01,2013-10-08 03:18:00,
2013-10-07 23:23:00,74.3,72.8,29.90,NE,55,5.0,7.0,95,0.00,,---,0.28,VWS V14.01,2013-10-08 03:23:00,
2013-10-07 23:28:00,74.3,72.8,29.89,ENE,71,5.0,6.0,95,0.00,,---,0.28,VWS V14.01,2013-10-08 03:28:00,
2013-10-07 23:33:00,74.2,72.7,29.89,ENE,63,4.0,6.0,95,0.00,,---,0.28,VWS V14.01,2013-10-08 03:33:00,
2013-10-07 23:38:00,74.2,72.7,29.89,ENE,68,5.0,6.0,95,0.00,,---,0.28,VWS V14.01,2013-10-08 03:38:00,
2013-10-07 23:43:00,74.2,72.7,29.89,ENE,71,5.0,7.0,95,0.00,,---,0.28,VWS V14.01,2013-10-08 03:43:00,
2013-10-07 23:48:00,74.1,72.6,29.89,East,85,4.0,7.0,95,0.00,,---,0.28,VWS V14.01,2013-10-08 03:48:00,
2013-10-07 23:53:00,74.0,72.5,29.89,East,88,4.0,7.0,95,0.00,,---,0.28,VWS V14.01,2013-10-08 03:53:00,
2013-10-07 23:58:00,73.9,72.4,29.89,ENE,65,3.0,6.0,95,0.00,,---,0.00,VWS V14.01,2013-10-08 03:58:00,